Startseite
Über Mich
AHP4
Galerie
Sehschlangen
Tourenbuch
Bookmarks
Elektronik
Bewertung
Geschichten
[Tagesmessung] [Jahreswerte] [Information]

Messwerte vom 15.02.2022

Die letzten Messwerte von 23:58:45 Uhr:
KategorieMesswert
Temperatur [°C]6
Luftdruck [mBar]989
Sonneneinstrahlung0
Wind [km/h]7 aus Süd
Niederschlag [l/m²]0
rel.Luftfeucht.83.6%
CO2 [ppm]549

Diagramme
Messwerte vom 15.02.2022
Tagesaggregation
KategorieMinimumMaximumSchnittSumme
Temperatur [°C]5106.9521
Luftdruck [mBar]989995992.2604
Sonneneinstrahlung23076.9083
Wind [km/h]21
rF [%]66.286.978.28
Niederschlag [l/m²]0.2575
CO2 [ppm]404882750.1
Einordnung alsVegetationstag

Messungen an benachbarten Tagen: Zur Jahresaggregation 2022
Tabelle aller Messwerte
UhrzeitTemperatur [°C]Luftdruck [mBar]SonneWind [km/h]RichtungRegen [l/m²]rF [%]CO2 [ppm]
00:01:45 7 989 0 6 S 0 81.4 757
00:04:46 7 990 0 5 O 0 81.4 759
00:07:48 7 990 0 3 S 0 81.5 766
00:10:48 7 990 0 1 SO 0 81.6 767
00:13:48 7 989 0 3 SW 0 81.8 763
00:16:48 7 990 0 8 S 0 82 763
00:19:46 7 990 0 5 S 0 82.3 761
00:22:46 7 990 0 5 SO 0 82.3 761
00:25:45 7 990 0 5 O 0 82.3 764
00:28:47 7 990 0 3 SO 0 82.4 767
00:31:48 7 990 0 2 SO 0 82.2 764
00:34:48 7 990 0 2 SW 0 82 769
00:37:46 7 989 0 6 SW 0 81.9 770
00:40:45 7 990 0 1 S 0 81.8 767
00:43:45 7 990 0 4 SO 0 81.8 767
00:46:46 7 990 0 4 SW 0 81.7 765
00:49:45 7 990 0 5 S 0 81.7 769
00:52:46 7 990 0 0 SO 0 81.5 767
00:55:45 7 990 0 5 SO 0 81.5 756
00:58:46 7 990 0 3 SW 0 81.6 761
01:01:48 7 990 0 2 SO 0 81.8 759
01:04:45 6 991 0 0 S 0 81.9 761
01:07:46 6 991 0 0 S 0 82.2 762
01:10:48 6 990 0 3 SO 0 82.5 764
01:13:47 6 990 0 5 SO 0 83.1 772
01:16:46 6 990 0 2 S 0 83.5 773
01:19:47 6 990 0 2 S 0 83.7 764
01:22:45 6 990 0 4 SO 0 83.4 755
01:25:46 6 990 0 2 S 0 83 753
01:28:45 6 990 0 4 S 0 82.9 759
01:31:50 6 990 0 4 S 0 82.8 759
01:34:45 6 989 0 1 S 0 82.8 762
01:37:45 6 990 0 2 S 0 82.9 758
01:40:46 6 990 0 3 S 0 83 756
01:43:48 6 990 0 4 SO 0 83.2 753
01:46:47 6 990 0 3 S 0 83.6 759
01:49:46 6 990 0 5 S 0 83.8 756
01:52:49 6 990 0 7 SO 0 84.2 757
01:55:46 6 990 0 4 SW 0 84.2 747
01:58:45 6 990 0 5 SO 0 84.1 741
02:01:45 6 990 0 4 S 0 84.1 746
02:04:46 6 991 0 3 SO 0 84.1 758
02:07:46 6 990 0 6 SW 0 84.1 762
02:10:48 6 990 0 6 SW 0 84.3 761
02:13:46 6 990 0 6 O 0 84.4 749
02:16:47 6 990 0 5 S 0 84.4 751
02:19:50 6 990 0 4 SO 0 84.4 744
02:22:47 6 990 0 3 S 0 84.3 744
02:25:47 6 990 0 7 W 0 84.3 751
02:28:45 6 990 0 1 W 0 84.3 756
02:31:44 6 990 0 8 S 0 84.3 753
02:34:44 6 991 0 4 S 0 84.5 753
02:37:47 6 990 0 3 SO 0 84.7 755
02:40:47 6 990 0 2 SW 0 84.6 756
02:43:46 6 990 0 8 SO 0 84.8 759
02:46:46 6 990 0 5 S 0 85.3 758
02:49:45 6 990 0 3 S 0 85.4 755
02:52:46 6 989 0 5 S 0 85.6 758
02:55:46 6 990 0 4 SO 0 85.9 764
02:58:47 6 990 0 6 S 0 85.9 762
03:01:46 6 990 0 5 SO 0 86.2 756
03:04:46 6 991 0 9 S 0 86.2 747
03:07:46 6 990 0 6 SW 0 85.7 746
03:10:48 6 990 0 5 S 0 85.5 753
03:13:45 6 990 0 5 S 0 85.6 755
03:16:47 6 990 0 6 SO 0 85.8 764
03:19:48 6 990 0 8 SW 0 85.8 749
03:22:47 6 990 0 6 SO 0 85.7 740
03:25:48 6 990 0 6 SO 0 85.5 733
03:28:46 6 990 0 6 S 0 85.4 747
03:31:46 6 991 0 7 S 0 85.1 748
03:34:47 6 990 0 9 SW 0 85.1 750
03:37:46 6 990 0 8 S 0 85.1 749
03:40:47 6 991 0 6 SO 0 85.1 758
03:43:46 6 991 0 2 O 0 85.2 757
03:46:46 6 990 0 7 W 0 85.2 758
03:49:47 6 991 0 6 SW 0 85.1 764
03:52:45 6 990 0 6 S 0 84.9 768
03:55:47 6 990 0 6 S 0 84.8 768
03:58:46 6 990 0 4 SO 0 84.8 764
04:01:45 6 991 0 5 W 0 84.8 764
04:04:47 6 990 0 4 S 0 85.1 756
04:07:48 6 991 0 3 S 0 85.2 762
04:10:48 6 991 0 3 SW 0 85.3 760
04:13:45 6 991 0 0 S 0 85.7 756
04:16:46 6 991 0 2 S 0 86 761
04:19:48 6 990 0 4 SO 0 86.1 762
04:22:47 6 991 0 5 S 0 86 766
04:25:43 6 991 0 4 S 0 85.9 770
04:28:47 6 991 0 16 SO 0 85.5 761
04:31:45 6 990 0 4 O 0 85.3 750
04:34:48 6 991 0 2 SW 0 85.4 756
04:37:46 6 991 0 0 S 0 85.7 767
04:40:48 5 991 0 0 SO 0 86.3 770
04:43:48 5 991 0 5 SO 0 86.6 771
04:46:47 6 990 0 3 SW 0 86.9 762
04:49:46 6 991 0 2 SW 0 86.9 767
04:52:44 6 991 0 4 SW 0 86.7 761
04:55:47 6 991 0 5 S 0 86.1 765
04:58:48 6 990 0 6 S 0 85.7 765
05:01:46 6 991 0 3 SO 0 85.4 766
05:04:45 6 991 0 7 S 0 85.3 761
05:07:46 6 991 0 5 S 0 85.2 758
05:10:48 6 991 0 3 S 0 84.9 765
05:13:44 6 991 0 4 SO 0 84.9 767
05:16:47 6 991 0 3 S 0 84.7 782
05:19:46 6 991 0 5 SW 0 84.6 779
05:22:47 6 991 0 4 S 0 84.5 782
05:25:50 6 991 0 4 SW 0 84.5 776
05:28:46 6 991 0 7 SW 0 84.6 771
05:31:45 6 991 0 2 S 0 84.6 778
05:34:48 6 991 0 2 W 0 84.7 780
05:37:47 6 991 0 1 SO 0 84.8 778
05:40:46 6 991 0 3 W 0 84.7 776
05:43:45 6 991 0 3 S 0 84.6 773
05:46:47 6 991 0 3 SW 0 84.5 772
05:49:51 6 991 0 3 SO 0 84.5 772
05:52:47 6 991 0 8 S 0 84.5 780
05:55:47 6 991 0 4 SO 0 84.5 779
05:58:47 6 991 0 3 SO 0 84.7 774
06:01:45 6 991 0 9 S 0 84.8 772
06:04:46 6 991 0 4 SO 0 84.9 778
06:07:47 6 991 0 2 SO 0 85 777
06:10:47 6 991 0 3 S 0 85.1 782
06:13:47 6 991 0 6 S 0 85.3 784
06:16:48 6 991 0 4 SW 0 85.8 780
06:19:46 6 991 0 8 S 0 86.1 776
06:22:48 6 991 0 12 SO 0 86.4 769
06:25:46 6 991 0 3 S 0 86.5 765
06:28:45 6 991 0 8 S 0 86.5 765
06:31:47 6 991 0 7 SO 0 86.4 762
06:34:48 6 991 0 9 SO 0 86.3 766
06:37:46 6 991 0 3 SO 0 86.1 770
06:40:46 6 991 0 2 SW 0 85.8 773
06:43:46 6 991 0 3 SW 0 85.8 781
06:46:47 6 991 0 4 SO 0 85.8 779
06:49:46 6 991 0 2 S 0 85.9 777
06:52:47 6 991 0 2 SW 0 85.9 773
06:55:46 6 991 0 6 SW 0 86.1 759
06:58:49 6 992 0 9 S 0 86.2 747
07:01:48 6 991 0 19 SO 0 86.2 748
07:04:47 6 991 0 11 SW 0 86.1 764
07:07:46 6 992 0 5 S 0 85.8 759
07:10:46 6 991 3 6 S 0 85.8 756
07:13:46 6 991 5 6 S 0 85.8 758
07:16:48 6 991 9 10 SO 0 85.8 749
07:19:47 6 991 13 3 SW 0 85.8 758
07:22:47 6 991 20 7 S 0 86.2 742
07:25:49 6 992 28 2 O 0 86.3 743
07:28:47 6 991 30 2 SW 0 86.3 739
07:31:45 6 992 27 3 S 0 86.3 760
07:34:47 6 991 32 2 SO 0 86.4 770
07:37:47 6 992 44 2 SO 0 86.5 770
07:40:48 6 992 58 2 SW 0 86.6 771
07:43:50 6 991 74 2 SO 0 86.6 782
07:46:47 6 992 82 2 SW 0 86.6 782
07:49:47 6 992 89 2 N 0 86.6 784
07:52:46 6 992 94 4 S 0 86.5 780
07:55:48 6 992 101 4 SW 0 86.3 793
07:58:47 6 991 103 2 S 0 86.3 795
08:01:47 6 992 101 3 S 0 86.3 796
08:04:48 6 992 97 4 SW 0 86.2 804
08:07:48 6 992 129 1 S 0 86.2 812
08:10:50 6 992 137 3 NO 0 86.2 818
08:13:51 6 993 139 4 S 0 86.2 823
08:16:48 6 992 143 2 S 0 86.2 821
08:19:48 6 993 144 4 SW 0 86.1 818
08:22:50 6 992 145 11 SW 0 85.8 808
08:25:48 6 993 147 4 W 0 85.5 810
08:28:47 6 993 148 3 S 0 85.4 814
08:31:48 6 993 149 3 S 0 85.4 811
08:34:46 6 993 150 7 W 0 85.3 820
08:37:48 6 993 151 3 SW 0 85.1 813
08:40:49 6 994 150 8 SO 0 85 812
08:43:48 6 994 146 4 N 0 84.8 818
08:46:48 7 993 139 3 NW 0 84.7 820
08:49:48 7 994 141 2 SW 0 84.6 817
08:52:47 6 994 149 2 S 0 84.7 815
08:55:49 6 993 154 2 SW 0 85.1 822
08:58:48 6 993 162 1 SW 0 85.3 822
09:01:51 6 994 165 1 SO 0 85.4 825
09:04:48 7 993 167 2 S 0 85.4 825
09:07:48 7 994 170 1 SO 0 85.3 819
09:10:48 7 993 166 0 NO 0 85.4 812
09:13:49 7 994 159 0 SW 0 85.4 806
09:16:49 7 994 165 1 NW 0 85 802
09:19:47 7 994 173 1 S 0 84.9 803
09:22:47 7 994 180 4 SW 0 84.9 808
09:25:47 7 994 181 0 SO 0 84.9 817
09:28:46 7 993 181 2 SW 0 84.9 814
09:31:45 7 994 183 2 W 0 84.9 813
09:34:49 7 993 180 2 SW 0 84.5 812
09:37:47 7 994 172 4 S 0 84.4 810
09:40:50 7 993 157 3 SO 0 84.1 806
09:43:47 7 994 147 1 S 0 83.8 806
09:46:46 7 994 150 5 N 0 83.8 810
09:49:48 7 994 162 0 SO 0 84 815
09:52:47 7 995 154 2 SW 0 84.2 823
09:55:46 7 994 167 3 SO 0 84.4 825
09:58:49 7 994 179 4 SW 0 84.4 823
10:01:48 7 994 182 1 O 0 84.4 828
10:04:48 7 994 163 2 S 0 84.4 829
10:07:46 7 995 169 8 N 0 84.4 824
10:10:49 7 994 185 1 N 0 84.3 826
10:13:47 7 994 205 3 W 0 84.3 817
10:16:48 7 994 209 4 NW 0 84.3 824
10:19:50 7 994 205 0 SO 0 84.3 817
10:22:46 7 994 204 1 O 0 83.9 811
10:25:47 7 994 208 2 NW 0 82.9 796
10:28:46 7 994 211 3 S 0 82.4 773
10:31:45 8 994 209 1 N 0 81.6 774
10:34:47 8 994 206 2 W 0 81.9 796
10:37:47 8 995 200 0 SW 0 82 797
10:40:48 8 995 207 2 SW 0 82.2 794
10:43:47 8 995 206 5 SW 0 81.6 793
10:46:47 8 995 202 3 SW 0 80.9 803
10:49:49 8 995 201 1 N 0 80.9 808
10:52:46 8 994 207 4 SW 0 80 797
10:55:49 8 995 213 3 SW 0 80 796
10:58:48 8 994 217 0 NO 0 80.7 797
11:01:47 8 995 218 1 S 0 80.5 802
11:04:49 8 994 218 2 SW 0 79.2 803
11:07:48 9 995 216 13 SW 0 78.6 813
11:10:46 9 995 217 4 O 0 77.4 821
11:13:46 9 995 219 8 N 0 76.1 819
11:16:48 9 995 219 6 S 0 75 822
11:19:47 9 994 219 6 S 0 75 820
11:22:48 9 995 220 3 NO 0 75 813
11:25:48 9 995 221 3 SO 0 75.2 813
11:28:48 9 995 220 5 SW 0 73.8 822
11:31:48 9 995 222 5 NO 0 73.4 831
11:34:46 10 994 222 1 O 0 73.4 831
11:37:50 10 995 223 8 SW 0 71.6 831
11:40:45 10 994 224 2 S 0 70.7 840
11:43:47 10 994 221 2 SO 0 70.3 841
11:46:49 10 994 220 14 SW 0 70.6 844
11:49:48 10 995 217 7 SO 0 69.3 843
11:52:48 10 995 220 10 SO 0 67.6 842
11:55:46 10 994 222 16 S 0 66.6 840
11:58:48 10 994 221 13 N 0 67.9 843
12:01:47 10 995 221 5 NW 0 68 835
12:04:48 10 995 220 5 O 0 68.3 827
12:07:49 10 995 221 7 W 0 69 828
12:10:48 10 995 222 6 SW 0 69.8 831
12:13:47 10 995 223 7 W 0 68.9 835
12:16:47 10 995 225 2 NO 0 69.7 832
12:19:50 10 995 225 10 W 0 69.2 842
12:22:50 10 995 224 20 SW 0 69.2 841
12:25:48 10 995 225 11 S 0 68.4 840
12:28:49 10 995 225 5 SO 0 68.3 840
12:31:48 10 995 223 4 SW 0 68.4 844
12:34:49 10 995 225 6 SW 0 68.8 849
12:37:49 10 995 223 2 SO 0 68.7 848
12:40:48 10 995 218 2 SO 0 69.3 843
12:43:48 10 995 214 2 S 0 68.4 832
12:46:50 10 995 211 2 SO 0 70 820
12:49:46 10 995 216 1 SO 0 70.1 831
12:52:49 9 995 210 9 W 0 69.8 835
12:55:48 9 995 215 0 S 0 70.8 835
12:58:46 9 995 219 3 S 0 71.2 831
13:01:49 9 995 217 4 S 0 70.5 839
13:04:48 9 995 215 1 NW 0 70.4 847
13:07:49 9 995 213 15 SO 0 70 839
13:10:49 9 995 208 5 SO 0 69.9 838
13:13:47 9 995 216 4 W 0 70.3 837
13:16:48 9 995 215 2 SO 0 70.6 843
13:19:45 9 994 206 6 W 0 71.3 848
13:22:47 9 994 193 4 NO 0 70.8 858
13:25:45 9 995 199 5 N 0 71.3 855
13:28:47 9 995 207 4 S 0 70.5 857
13:31:49 9 995 203 7 SW 0 71.8 609
13:34:46 9 994 192 4 S 0 72.4 521
13:37:45 9 995 181 4 S 0 72.6 702
13:40:49 9 995 188 2 SW 0 72.6 755
13:43:47 9 995 196 2 W 0 73.2 762
13:46:47 9 995 203 4 S 0 73.8 761
13:49:47 9 995 215 8 S 0 74.2 756
13:52:47 9 995 224 3 S 0 73.9 750
13:55:48 9 995 230 6 SW 0 73.8 748
13:58:44 9 995 227 1 S 0 73.4 751
14:01:49 9 995 226 7 S 0 72.8 761
14:04:46 9 994 223 2 W 0 71.5 765
14:07:46 9 995 219 5 S 0 70.3 773
14:10:47 9 995 218 6 S 0 69.9 773
14:13:45 9 995 217 4 S 0 69.9 773
14:16:48 9 994 218 9 SW 0 70.3 772
14:19:48 9 995 220 3 O 0 69.8 787
14:22:47 9 995 226 5 SW 0 69.2 782
14:25:49 9 994 220 9 NW 0 69.2 789
14:28:51 9 994 208 2 SO 0 69.7 785
14:31:47 9 995 193 5 S 0 69.5 785
14:34:46 9 994 186 1 S 0 68.6 793
14:37:50 9 995 190 3 S 0 69 797
14:40:48 9 994 175 5 S 0 69 805
14:43:46 9 994 171 6 S 0 69.4 806
14:46:48 9 995 175 1 S 0 69.6 806
14:49:49 9 995 176 3 SW 0 70.3 811
14:52:46 9 995 174 1 W 0 70.5 810
14:55:46 9 994 182 3 S 0 70.9 810
14:58:48 8 994 201 8 S 0 71 828
15:01:50 9 995 212 3 SW 0 71 829
15:04:48 9 994 221 1 SW 0 71.4 834
15:07:46 9 994 217 7 S 0 71.2 837
15:10:49 9 995 215 5 SW 0 70.6 840
15:13:47 9 995 205 4 SW 0 70.2 839
15:16:46 9 994 196 2 O 0 70.3 843
15:19:49 9 994 180 1 SW 0 70.1 846
15:22:48 9 994 173 2 SW 0 70 847
15:25:47 9 994 166 4 SO 0 70.2 857
15:28:49 9 994 174 7 S 0 70.2 858
15:31:50 9 994 193 2 SO 0 70.3 862
15:34:47 8 994 212 2 S 0 70.6 858
15:37:47 8 994 213 3 SO 0 70.8 864
15:40:48 9 994 207 3 SO 0 70.6 873
15:43:46 9 994 207 4 S 0 70.7 875
15:46:44 9 994 199 5 O 0 70.5 874
15:49:49 9 993 179 1 SO 0 70.5 879
15:52:47 9 994 160 5 O 0 70.4 881
15:55:47 9 994 174 2 0 70.6 875
15:58:46 9 994 205 1 SO 0 70.8 878
16:01:48 9 994 218 0 S 0 71.1 880
16:04:47 9 994 209 3 SW 0 71.4 882
16:07:50 9 994 195 0 SO 0 71.5 869
16:10:48 9 994 199 0 S 0 71.3 874
16:13:49 9 994 194 0 SO 0 71.3 858
16:16:47 8 993 193 0 W 0 72.1 870
16:19:47 8 994 187 1 SW 0 72.4 865
16:22:48 8 994 185 0 SO 0 72.9 845
16:25:48 8 994 180 0 S 0 73 821
16:28:47 8 994 180 2 S 0 73.4 763
16:31:46 8 994 155 3 S 0 73.4 788
16:34:48 8 993 159 4 SO 0 73.3 817
16:37:51 8 994 162 2 SW 0 72.8 837
16:40:46 8 993 166 4 S 0 72.4 831
16:43:46 8 993 145 4 S 0 72.4 823
16:46:50 8 993 141 7 SW 0 70.6 837
16:49:52 8 994 168 17 SW 0 69.2 829
16:52:47 8 994 160 6 SO 0 68.4 838
16:55:49 8 993 141 6 SW 0 68.7 838
16:58:49 8 994 124 3 SO 0 68.6 834
17:01:47 8 994 131 3 SW 0 69 825
17:04:46 8 993 132 4 S 0 69 824
17:07:49 8 993 128 4 S 0 69.4 829
17:10:48 8 993 132 4 SW 0 69.8 828
17:13:48 8 993 138 2 NO 0 70.2 837
17:16:48 8 993 131 3 SW 0 71 844
17:19:45 7 993 124 1 S 0 71.4 845
17:22:47 7 993 110 4 S 0 71.5 852
17:25:48 7 993 98 2 SW 0 71.9 855
17:28:46 7 993 92 2 SW 0 72.2 861
17:31:46 7 992 84 2 SO 0 72.6 858
17:34:47 7 993 66 1 S 0 73 858
17:37:44 7 993 59 1 O 0 73.7 857
17:40:46 7 992 48 1 S 0 74.2 841
17:43:47 7 994 40 2 SO 0 74.9 840
17:46:46 7 993 28 1 SW 0 75.2 840
17:49:46 6 993 17 4 S 0 75.2 838
17:52:44 6 993 10 3 SW 0 75.2 841
17:55:46 6 993 6 0 S 0 75.3 832
17:58:49 6 994 3 5 SO 0 75.7 840
18:01:46 6 993 0 1 O 0 76.2 840
18:04:51 6 993 0 5 SO 0 76.3 844
18:07:48 6 993 0 3 SO 0 76.3 842
18:10:47 6 993 0 6 SW 0 76.3 843
18:13:46 6 993 0 6 S 0 76.7 851
18:16:46 6 994 0 5 S 0 77.3 856
18:19:47 6 993 0 7 SO 0 78 860
18:22:46 6 993 0 7 SW 0 78.4 853
18:25:48 6 993 0 4 SO 0 78.6 846
18:28:46 6 992 0 3 SW 0 78.5 846
18:31:46 6 993 0 10 O 0 78.5 848
18:34:45 6 993 0 3 S 0 78.4 841
18:37:47 6 993 0 1 SO 0 78.4 835
18:40:48 6 992 0 4 SW 0 78.5 836
18:43:47 6 993 0 7 SO 0 78.5 823
18:46:49 6 992 0 5 S 0 78.1 829
18:49:45 6 992 0 6 SW 0 77.9 828
18:52:46 6 993 0 7 SW 0 77.5 829
18:55:45 6 993 0 5 O 0 77.3 836
18:58:47 6 992 0 11 SO 0 77 858
19:01:49 6 993 0 6 SO 0 76.8 838
19:04:46 6 992 0 13 S 0 76.6 822
19:07:48 6 993 0 5 SW 0 76.2 825
19:10:46 6 993 0 8 SO 0 76.1 820
19:13:48 6 992 0 9 SW 0 76 806
19:16:44 6 992 0 4 S 0 75.5 799
19:19:48 6 992 0 4 SW 0 75.5 798
19:22:46 6 993 0 7 S 0 75.6 803
19:25:45 6 993 0 4 S 0 75.7 800
19:28:46 6 993 0 4 SW 0 76 797
19:31:46 6 992 0 3 SO 0 76.6 794
19:34:45 6 992 0 4 S 0 76.8 806
19:37:47 5 992 0 10 S 0 77 789
19:40:46 5 992 0 8 S 0 77 790
19:43:45 5 992 0 8 SO 0 77 777
19:46:44 5 992 0 9 S 0 76.8 769
19:49:46 5 992 0 2 SO 0 76.5 700
19:52:47 5 993 0 4 SO 0 76.4 407
19:55:46 5 992 0 4 SO 0 76.4 404
19:58:46 5 993 0 5 SO 0 76.4 436
20:01:48 5 992 0 6 SO 0 76.4 466
20:04:45 5 992 0 9 S 0 76.4 465
20:07:46 5 992 0 8 S 0 76.3 454
20:10:46 5 992 0 8 S 0 76 445
20:13:46 6 992 0 4 W 0 75.6 477
20:16:45 6 992 0 7 S 0 75.2 466
20:19:46 6 992 0 9 SW 0 74.9 467
20:22:47 6 992 0 10 W 0 74.5 475
20:25:45 6 992 0 9 S 0 74.1 483
20:28:46 6 991 0 10 SW 0 73.5 491
20:31:47 6 992 0 12 SW 0 73.5 498
20:34:45 6 991 0 15 S 0 73.1 500
20:37:48 6 991 0 8 W 0 73 509
20:40:49 6 992 0 8 SW 0 72.9 512
20:43:47 6 991 0 10 S 0 72.9 524
20:46:45 6 991 0 7 S 0 72.9 530
20:49:45 6 991 0 5 0 72.7 532
20:52:44 6 991 0 4 S 0 72.7 533
20:55:47 6 991 0 10 SW 0 73 548
20:58:45 6 991 0 10 S 0 73.1 547
21:01:47 6 991 0 13 S 0 73 542
21:04:48 6 992 0 13 S 0 72.2 541
21:07:45 6 991 0 7 SW 0 71.9 544
21:10:47 6 992 0 8 S 0 71.4 543
21:13:47 6 992 0 9 SW 0 71.4 548
21:16:46 6 991 0 6 S 0 71.5 550
21:19:46 6 991 0 10 S 0 71.5 554
21:22:46 6 991 0 11 SW 0 71.4 553
21:25:48 6 991 0 21 SW 0 71.3 559
21:28:45 6 991 0 3 S 0 71.1 563
21:31:46 6 991 0 15 SW 0 70.9 565
21:34:46 6 991 0 16 SW 0 70.4 565
21:37:45 6 991 0 6 S 0 70.1 573
21:40:45 6 991 0 9 SO 0 70 579
21:43:49 6 991 0 14 SW 0 69.7 580
21:46:50 6 991 0 5 SW 0 69.3 585
21:49:48 6 991 0 6 SO 0 69.3 585
21:52:48 6 991 0 5 SW 0 69.3 589
21:55:45 6 991 0 7 S 0 68.8 591
21:58:47 6 991 0 10 SO 0 68.7 591
22:01:48 6 991 0 6 SW 0 68 589
22:04:46 6 991 0 1 SO 0 67.6 588
22:07:48 6 991 0 9 SO 0 67.6 592
22:10:47 7 991 0 8 SW 0 67.2 474
22:13:45 7 991 0 6 W 0 67 483
22:16:47 7 991 0 12 SW 0 67.1 485
22:19:47 7 991 0 7 S 0 66.9 486
22:22:47 7 991 0 2 SW 0 66.6 492
22:25:46 7 991 0 8 S 0 66.5 497
22:28:49 7 991 0 12 S 0 66.4 498
22:31:46 7 991 0 3 NO 0 66.2 500
22:34:46 7 991 0 14 SO 0 67.1 500
22:37:47 7 991 0 12 SW 0 68.2 504
22:40:45 7 991 0 7 NW 0 68.9 500
22:43:45 6 991 0 8 W 0 70.6 495
22:46:45 6 991 0 7 S 0 71.8 501
22:49:46 6 991 0 5 SW 0 72.9 503
22:52:47 6 990 0 9 S 0 74.4 515
22:55:46 6 991 0 10 SW 0 74.9 527
22:58:48 6 991 0 6 SW 0 75.5 524
23:01:50 6 991 0 9 SO 0 76.3 524
23:04:48 6 991 0 7 W 0 77.2 524
23:07:46 6 990 0 7 SW 0 77.4 530
23:10:48 6 991 0 2 SO 0 78.4 538
23:13:46 6 990 0 6 NO 0 78.5 536
23:16:46 6 990 0 7 SW 0 79.4 536
23:19:45 6 990 0 5 W 0 79.6 535
23:22:46 6 990 0 16 S 0 79.8 539
23:25:47 6 990 0 7 W 0 81.2 537
23:28:47 6 990 0 8 SW 0.2575 81.9 539
23:31:46 6 990 0 3 S 0 82.8 539
23:34:45 6 990 0 11 SO 0 83.6 539
23:37:48 6 990 0 8 SO 0 83.5 538
23:40:46 6 990 0 7 W 0 83.7 536
23:43:47 6 990 0 10 S 0 84 538
23:46:47 6 990 0 16 SO 0 84.3 550
23:49:48 6 990 0 7 SO 0 83.8 548
23:52:46 6 990 0 8 SO 0 83.8 548
23:55:46 6 989 0 2 SW 0 83.9 541
23:58:45 6 989 0 7 S 0 83.6 549

Letzte Änderung : 22-Jul-2022
Copyright Jens Köhler, Wolfsburg, Obere Dorfstraße 10d